Location: Drożyska Wielkie
(53.3958°N, 17.1483°E)
Time: 22:25:07
(UTC+01:00)

ISS - Visible Passes

Search period start: 19 January 2018 00:00
Search period end: 29 January 2018 00:00
Orbit: 402 x 407 km, 51.6° (Epoch: 20 January)

Date Brightness Start Highest point End Pass type
(mag) Time Alt. Az. Time Alt. Az. Time Alt. Az.
26 Jan -1.0 18:55:54 10° SSW 18:56:11 11° S 18:56:11 11° S visible
27 Jan -1.6 18:04:34 10° S 18:06:09 13° SE 18:06:11 13° SE visible
28 Jan -2.1 18:46:48 10° SW 18:48:46 25° S 18:48:46 25° S visible
